Terminal Aerodrome Forecast
Issued by NWS Salt Lake City, UT

Home | Current Version | Previous Version | Text Only | Print | Product List | Glossary On
Versions: 1 2 3 4 5 6 7 8 9 10 11 12 13 14 15 16 17 18 19 20 21 22 23 24 25 26
000
FTUS45 KSLC 310314 AAC
TAFSLC
TAF AMD
KSLC 310314Z 3103/0106 34007KT P6SM FEW090 BKN150
     FM310345 29011G22KT P6SM SCT090 BKN130
     FM310430 34010KT P6SM SCT100 BKN140
     FM310800 13006KT P6SM FEW100 SCT150
     FM311600 18013G18KT P6SM SCT150
     FM312000 34008KT P6SM SCT110 SCT150
     FM010400 14006KT P6SM FEW150=

USA.gov is the U.S. government's official web portal to all federal, state and local government web resources and services.